Time,TemperatureF,DewpointF,PressureIn,WindDirection,WindDirectionDegrees,WindSpeedMPH,WindSpeedGustMPH,Humidity,HourlyPrecipIn,Conditions,Clouds,dailyrainin,SolarRadiationWatts/m^2,SoftwareType,DateUTC
2013-09-08 00:03:00,80.0,63.0,-100.00,SSE,164,6.0,11.0,57,0.00,,,0.00,0.000000,,2013-09-08 05:03:00,
2013-09-08 00:43:00,77.0,63.0,-100.00,SSW,196,3.0,8.0,62,0.00,,,0.00,0.000000,,2013-09-08 05:43:00,
2013-09-08 00:52:00,77.0,63.0,-100.00,SSW,196,3.0,8.0,62,0.00,,,0.00,0.000000,,2013-09-08 05:52:00,
2013-09-08 01:03:00,77.0,63.0,-100.00,SSW,196,3.0,8.0,62,0.00,,,0.00,0.000000,,2013-09-08 06:03:00,
2013-09-08 01:42:00,77.0,65.0,-100.00,SSE,153,9.0,14.0,66,0.00,,,0.00,0.000000,,2013-09-08 06:42:00,
2013-09-08 01:53:00,77.0,65.0,-100.00,SSE,153,9.0,14.0,66,0.00,,,0.00,0.000000,,2013-09-08 06:53:00,
2013-09-08 02:01:00,77.0,65.0,-100.00,SSE,153,9.0,14.0,66,0.00,,,0.00,0.000000,,2013-09-08 07:01:00,
2013-09-08 02:42:00,75.0,64.0,-100.00,South,173,4.0,14.0,69,0.00,,,0.00,0.000000,,2013-09-08 07:42:00,
2013-09-08 02:52:00,75.0,64.0,-100.00,South,173,4.0,14.0,69,0.00,,,0.00,0.000000,,2013-09-08 07:52:00,
2013-09-08 03:02:00,75.0,64.0,-100.00,South,173,4.0,14.0,69,0.00,,,0.00,0.000000,,2013-09-08 08:02:00,
2013-09-08 03:42:00,74.0,64.0,-100.00,South,187,3.0,8.0,72,0.00,,,0.00,0.000000,,2013-09-08 08:42:00,
2013-09-08 03:52:00,74.0,64.0,-100.00,South,187,3.0,8.0,72,0.00,,,0.00,0.000000,,2013-09-08 08:52:00,
2013-09-08 04:02:00,74.0,64.0,-100.00,South,187,3.0,8.0,72,0.00,,,0.00,0.000000,,2013-09-08 09:02:00,
2013-09-08 04:43:00,71.0,64.0,-100.00,South,185,2.0,4.0,79,0.00,,,0.00,0.000000,,2013-09-08 09:43:00,
2013-09-08 04:54:00,71.0,64.0,-100.00,South,185,2.0,4.0,79,0.00,,,0.00,0.000000,,2013-09-08 09:54:00,
2013-09-08 05:03:00,71.0,64.0,-100.00,South,185,2.0,4.0,79,0.00,,,0.00,0.000000,,2013-09-08 10:03:00,
2013-09-08 05:43:00,70.0,65.0,-100.00,SSE,148,2.0,3.0,83,0.00,,,0.00,0.000000,,2013-09-08 10:43:00,
2013-09-08 05:53:00,70.0,65.0,-100.00,SSE,148,2.0,3.0,83,0.00,,,0.00,0.000000,,2013-09-08 10:53:00,
2013-09-08 06:02:00,70.0,65.0,-100.00,SSE,148,2.0,3.0,83,0.00,,,0.00,0.000000,,2013-09-08 11:02:00,
2013-09-08 06:42:00,70.0,66.0,-100.00,South,173,3.0,4.0,87,0.00,,,0.00,0.000000,,2013-09-08 11:42:00,
2013-09-08 06:52:00,70.0,66.0,-100.00,South,173,3.0,4.0,87,0.00,,,0.00,0.000000,,2013-09-08 11:52:00,
2013-09-08 07:02:00,70.0,66.0,-100.00,South,173,3.0,4.0,87,0.00,,,0.00,0.000000,,2013-09-08 12:02:00,
2013-09-08 07:42:00,69.0,65.0,-100.00,SSE,159,2.0,4.0,88,0.00,,,0.00,1.000000,,2013-09-08 12:42:00,
2013-09-08 07:52:00,69.0,65.0,-100.00,SSE,159,2.0,4.0,88,0.00,,,0.00,1.000000,,2013-09-08 12:52:00,
2013-09-08 08:02:00,69.0,65.0,-100.00,SSE,159,2.0,4.0,88,0.00,,,0.00,1.000000,,2013-09-08 13:02:00,
2013-09-08 08:42:00,73.0,69.0,-100.00,SE,145,3.0,5.0,88,0.00,,,0.00,24.000000,,2013-09-08 13:42:00,
2013-09-08 08:52:00,73.0,69.0,-100.00,SE,145,3.0,5.0,88,0.00,,,0.00,24.000000,,2013-09-08 13:52:00,
2013-09-08 09:02:00,73.0,69.0,-100.00,SE,145,3.0,5.0,88,0.00,,,0.00,24.000000,,2013-09-08 14:02:00,
2013-09-08 09:42:00,80.0,71.0,-100.00,SSW,198,3.0,5.0,73,0.00,,,0.00,58.000000,,2013-09-08 14:42:00,
2013-09-08 09:52:00,80.0,71.0,-100.00,SSW,198,3.0,5.0,73,0.00,,,0.00,58.000000,,2013-09-08 14:52:00,
2013-09-08 10:02:00,80.0,71.0,-100.00,SSW,198,3.0,5.0,73,0.00,,,0.00,58.000000,,2013-09-08 15:02:00,
2013-09-08 10:45:00,85.0,70.0,-100.00,WSW,245,5.0,7.0,62,0.00,,,0.00,451.000000,,2013-09-08 15:45:00,
2013-09-08 10:55:00,85.0,70.0,-100.00,WSW,245,5.0,7.0,62,0.00,,,0.00,451.000000,,2013-09-08 15:55:00,
2013-09-08 11:04:00,85.0,70.0,-100.00,WSW,245,5.0,7.0,62,0.00,,,0.00,451.000000,,2013-09-08 16:04:00,
2013-09-08 11:44:00,90.0,71.0,-100.00,SSE,161,7.0,11.0,54,0.00,,,0.00,623.000000,,2013-09-08 16:44:00,
2013-09-08 11:53:00,90.0,71.0,-100.00,SSE,161,7.0,11.0,54,0.00,,,0.00,623.000000,,2013-09-08 16:53:00,
2013-09-08 12:03:00,90.0,71.0,-100.00,SSE,161,7.0,11.0,54,0.00,,,0.00,623.000000,,2013-09-08 17:03:00,
2013-09-08 12:43:00,93.0,66.0,-100.00,SSE,162,5.0,12.0,42,0.00,,,0.00,810.000000,,2013-09-08 17:43:00,
2013-09-08 12:53:00,93.0,66.0,-100.00,SSE,162,5.0,12.0,42,0.00,,,0.00,810.000000,,2013-09-08 17:53:00,
2013-09-08 13:02:00,93.0,66.0,-100.00,SSE,162,5.0,12.0,42,0.00,,,0.00,810.000000,,2013-09-08 18:02:00,
2013-09-08 13:42:00,95.0,67.0,-100.00,SSE,151,7.0,15.0,40,0.00,,,0.00,911.000000,,2013-09-08 18:42:00,
2013-09-08 13:52:00,95.0,67.0,-100.00,SSE,151,7.0,15.0,40,0.00,,,0.00,911.000000,,2013-09-08 18:52:00,
2013-09-08 14:01:00,95.0,67.0,-100.00,SSE,151,7.0,15.0,40,0.00,,,0.00,911.000000,,2013-09-08 19:01:00,
2013-09-08 14:42:00,97.0,65.0,-100.00,SE,141,5.0,14.0,35,0.00,,,0.00,832.000000,,2013-09-08 19:42:00,
2013-09-08 14:52:00,97.0,65.0,-100.00,SE,141,5.0,14.0,35,0.00,,,0.00,832.000000,,2013-09-08 19:52:00,
2013-09-08 15:03:00,97.0,65.0,-100.00,SE,141,5.0,14.0,35,0.00,,,0.00,832.000000,,2013-09-08 20:03:00,
2013-09-08 15:42:00,98.0,65.0,-100.00,SE,145,7.0,13.0,34,0.00,,,0.00,783.000000,,2013-09-08 20:42:00,
2013-09-08 15:53:00,98.0,65.0,-100.00,SE,145,7.0,13.0,34,0.00,,,0.00,783.000000,,2013-09-08 20:53:00,
2013-09-08 16:02:00,98.0,65.0,-100.00,SE,145,7.0,13.0,34,0.00,,,0.00,783.000000,,2013-09-08 21:02:00,
2013-09-08 16:44:00,99.0,61.0,-100.00,South,175,7.0,14.0,29,0.00,,,0.00,832.000000,,2013-09-08 21:44:00,
2013-09-08 16:54:00,99.0,61.0,-100.00,South,175,7.0,14.0,29,0.00,,,0.00,832.000000,,2013-09-08 21:54:00,
2013-09-08 17:04:00,99.0,61.0,-100.00,South,175,7.0,14.0,29,0.00,,,0.00,832.000000,,2013-09-08 22:04:00,
2013-09-08 17:44:00,96.0,59.0,-100.00,SSE,157,5.0,15.0,29,0.00,,,0.00,577.000000,,2013-09-08 22:44:00,
2013-09-08 17:53:00,96.0,59.0,-100.00,SSE,157,5.0,15.0,29,0.00,,,0.00,577.000000,,2013-09-08 22:53:00,
2013-09-08 18:04:00,96.0,59.0,-100.00,SSE,157,5.0,15.0,29,0.00,,,0.00,577.000000,,2013-09-08 23:04:00,
2013-09-08 18:42:00,98.0,61.0,-100.00,ESE,109,4.0,11.0,30,0.00,,,0.00,405.000000,,2013-09-08 23:42:00,
2013-09-08 18:52:00,98.0,61.0,-100.00,ESE,109,4.0,11.0,30,0.00,,,0.00,405.000000,,2013-09-08 23:52:00,
2013-09-08 19:02:00,98.0,61.0,-100.00,ESE,109,4.0,11.0,30,0.00,,,0.00,405.000000,,2013-09-09 00:02:00,
2013-09-08 19:42:00,94.0,59.0,-100.00,ESE,119,4.0,14.0,31,0.00,,,-99.99,178.000000,,2013-09-09 00:42:00,
2013-09-08 19:52:00,94.0,59.0,-100.00,ESE,119,4.0,14.0,31,0.00,,,-99.99,178.000000,,2013-09-09 00:52:00,
2013-09-08 20:01:00,94.0,59.0,-100.00,ESE,119,4.0,14.0,31,0.00,,,-99.99,178.000000,,2013-09-09 01:01:00,
2013-09-08 20:42:00,87.0,58.0,-100.00,SE,143,3.0,8.0,37,0.00,,,0.00,12.000000,,2013-09-09 01:42:00,
2013-09-08 20:52:00,87.0,58.0,-100.00,SE,143,3.0,8.0,37,0.00,,,0.00,12.000000,,2013-09-09 01:52:00,
2013-09-08 21:02:00,87.0,58.0,-100.00,SE,143,3.0,8.0,37,0.00,,,0.00,12.000000,,2013-09-09 02:02:00,
2013-09-08 21:42:00,85.0,60.0,-100.00,SE,137,4.0,6.0,43,0.00,,,0.00,0.000000,,2013-09-09 02:42:00,
2013-09-08 21:53:00,85.0,60.0,-100.00,SE,137,4.0,6.0,43,0.00,,,0.00,0.000000,,2013-09-09 02:53:00,
2013-09-08 22:02:00,85.0,60.0,-100.00,SE,137,4.0,6.0,43,0.00,,,0.00,0.000000,,2013-09-09 03:02:00,
2013-09-08 22:44:00,84.0,60.0,-100.00,SE,144,5.0,8.0,45,0.00,,,0.00,0.000000,,2013-09-09 03:44:00,
2013-09-08 22:55:00,84.0,60.0,-100.00,SE,144,5.0,8.0,45,0.00,,,0.00,0.000000,,2013-09-09 03:55:00,
2013-09-08 23:03:00,84.0,60.0,-100.00,SE,144,5.0,8.0,45,0.00,,,0.00,0.000000,,2013-09-09 04:03:00,
2013-09-08 23:43:00,84.0,61.0,-100.00,SSE,165,8.0,15.0,46,0.00,,,0.00,0.000000,,2013-09-09 04:43:00,
2013-09-08 23:54:00,84.0,61.0,-100.00,SSE,165,8.0,15.0,46,0.00,,,0.00,0.000000,,2013-09-09 04:54:00,